Location: Hopkins Observatory
(42.6965°N, 73.1843°W)
Time: 11:03:45
(UTC-04:00)

Amateur Radio Satellites - All Passes

Search period start: 24 April 2017 10:33
Search period end: 25 April 2017 10:33
Location: Hopkins Observatory, 42.6965°N, 73.1843°W

Satellite Date Start Highest point End Downlink Frequencies (MHz)
Time Altitude Azimuth
AIST 2D 24 Apr 10:37:16 10:39:53 20° 69° (ENE) 10:42:30 435.315
RS-15 24 Apr 10:42:56 10:54:04 38° 328° (NNW) 11:05:23 29.354- 29.394
Oscar 11 24 Apr 10:43:12 10:46:55 28° 291° (WNW) 10:50:37 .
TIGRISAT 24 Apr 10:51:47 10:55:46 33° 263° (W) 10:59:42 435.000
UWE-3 24 Apr 10:51:56 10:53:02 11° 298° (WNW) 10:54:09 435.000/436.395/437.385
NANOSAT C BR1 24 Apr 10:54:05 10:57:10 20° 66° (ENE) 11:00:14 145.865
HO-68 24 Apr 11:05:13 11:08:01 13° 312° (NW) 11:10:49 435.675
LO-87 24 Apr 11:05:24 11:07:43 16° 93° (E) 11:10:01 145.935 - 145.965
FO-29 24 Apr 11:11:32 11:17:33 39° 262° (W) 11:22:58 435.910
UNISAT 6 24 Apr 11:13:10 11:16:19 19° 267° (W) 11:19:27 437.425
EO-79 24 Apr 11:19:02 11:22:58 39° 71° (ENE) 11:26:55 145.935-145.965
PCSat 24 Apr 11:23:24 11:28:20 34° 50° (NE) 11:33:14 145.827
DUCHIFAT 1 24 Apr 11:24:29 11:28:21 37° 70° (ENE) 11:32:13 145.980
OBJECT BX 24 Apr 11:24:59 11:28:16 32° 289° (WNW) 11:31:34 145.990 - 145.960
O/OREOS (USA 219) 24 Apr 11:35:08 11:39:40 60° 295° (WNW) 11:44:14 437.305
DELFI C3 24 Apr 11:37:06 11:40:12 22° 293° (WNW) 11:43:16 145.870
ESTCUBE 1 24 Apr 11:40:36 11:44:24 26° 95° (E) 11:48:13 437.505/2401.250
Oscar 19 24 Apr 11:53:40 11:55:44 12° 57° (ENE) 11:57:48 437.125/150
POLYITAN 1 24 Apr 11:57:07 12:01:20 77° 257° (WSW) 12:05:34 437.675
QB50P2 24 Apr 12:03:38 12:07:49 60° 259° (W) 12:12:00 145.880/145.840
VELOX 1 24 Apr 12:07:06 12:09:21 14° 91° (E) 12:11:35 145.980
Tancredo 1 24 Apr 12:08:05 12:10:13 17° 352° (N) 12:12:22 437.200
ISS 24 Apr 12:08:43 12:11:08 19° 349° (N) 12:13:34 437.550
AIST 2D 24 Apr 12:10:09 12:12:58 23° 265° (W) 12:15:50 435.315
NANOSAT C BR1 24 Apr 12:28:42 12:32:37 37° 262° (W) 12:36:33 145.865
BUGSAT 1 24 Apr 12:37:08 12:41:18 79° 76° (ENE) 12:45:27 437.445
LO-87 24 Apr 12:38:04 12:41:14 30° 289° (WNW) 12:44:23 145.935 - 145.965
AO-85 24 Apr 12:40:52 12:44:07 21° 114° (ESE) 12:47:13 145.980
EO-79 24 Apr 12:55:57 12:58:53 18° 267° (W) 13:01:50 145.935-145.965
DUCHIFAT 1 24 Apr 13:01:07 13:04:08 19° 267° (W) 13:07:10 145.980
RS-15 24 Apr 13:01:44 13:11:28 25° 2° (N) 13:21:06 29.354- 29.394
PCSat 24 Apr 13:06:45 13:11:47 39° 248° (WSW) 13:16:45 145.827
DX 1 24 Apr 13:06:55 13:10:22 23° 95° (E) 13:13:48 434.975-435.025
Gurwin Techsat 1B 24 Apr 13:09:35 13:14:22 35° 67° (ENE) 13:19:10 435.225
ESTCUBE 1 24 Apr 13:17:11 13:21:12 32° 292° (WNW) 13:25:12 437.505/2401.250
SPROUT 24 Apr 13:28:43 13:32:59 81° 286° (WNW) 13:37:13 437.525
Oscar 19 24 Apr 13:29:05 13:34:14 87° 75° (ENE) 13:39:28 437.125/150
50 SAT 24 Apr 13:29:23 13:32:54 66° 102° (ESE) 13:36:20 437.505
VELOX 1 24 Apr 13:41:48 13:46:11 58° 287° (WNW) 13:50:29 145.980
Tancredo 1 24 Apr 13:44:41 13:46:59 19° 12° (NNE) 13:49:18 437.200
ISS 24 Apr 13:46:04 13:48:29 19° 10° (N) 13:50:54 437.550
UKube-1 24 Apr 14:14:48 14:19:10 86° 104° (ESE) 14:23:28 .
AO-7 24 Apr 14:16:24 14:23:46 38° 58° (ENE) 14:31:09 .
AO-85 24 Apr 14:20:17 14:24:17 39° 309° (NW) 14:28:07 145.980
BEESAT 2 24 Apr 14:42:17 14:45:33 25° 114° (ESE) 14:48:52 435.950
DX 1 24 Apr 14:42:40 14:46:37 34° 291° (WNW) 14:50:31 434.975-435.025
ITUPSAT 1 24 Apr 14:46:09 14:48:59 15° 91° (E) 14:51:47 437.325
BEESAT 3 24 Apr 14:48:36 14:52:32 79° 122° (ESE) 14:56:33 437.485
ITAMSAT 1 24 Apr 14:49:21 14:54:17 46° 70° (ENE) 14:59:14 435.822/435.867
Gurwin Techsat 1B 24 Apr 14:49:38 14:54:18 31° 264° (W) 14:59:00 435.225
YUBILEINY 24 Apr 14:50:51 14:58:24 31° 68° (ENE) 15:05:56 435.215
Oscar 19 24 Apr 15:12:39 15:14:14 11° 272° (W) 15:15:49 437.125/150
RS-15 24 Apr 15:17:06 15:28:36 42° 36° (NE) 15:39:39 29.354- 29.394
Tancredo 1 24 Apr 15:20:16 15:23:22 64° 31° (NNE) 15:26:27 437.200
ISS 24 Apr 15:22:17 15:25:29 54° 29° (NNE) 15:28:41 437.550
SO-50 24 Apr 15:30:03 15:34:22 42° 50° (NE) 15:38:39 436.795
BEESAT 24 Apr 15:43:33 15:48:16 59° 101° (E) 15:52:58 436.000
UKube-1 24 Apr 15:54:02 15:54:29 10° 301° (WNW) 15:54:56 .
MOZHAYETS 4 24 Apr 15:59:55 16:04:20 43° 99° (E) 16:08:43
AO-7 24 Apr 16:08:12 16:16:15 54° 258° (WSW) 16:24:22 .
BEESAT 2 24 Apr 16:19:36 16:23:10 32° 311° (NW) 16:26:50 435.950
ITUPSAT 1 24 Apr 16:22:28 16:27:10 59° 288° (WNW) 16:31:51 437.325
BEESAT 3 24 Apr 16:28:29 16:30:39 14° 321° (NW) 16:32:51 437.485
ITAMSAT 1 24 Apr 16:29:54 16:33:57 23° 266° (W) 16:38:00 435.822/435.867
KKS-1 24 Apr 16:31:56 16:34:44 16° 92° (E) 16:37:30 437.445
CUBESAT XI-V 24 Apr 16:44:28 16:48:14 23° 93° (E) 16:51:57 437.345
YUBILEINY 24 Apr 16:47:10 16:55:44 61° 269° (W) 17:04:19 435.215
Tancredo 1 24 Apr 16:57:07 16:58:57 15° 228° (SW) 17:00:48 437.200
ISS 24 Apr 16:59:18 17:01:43 19° 226° (SW) 17:04:07 437.550
XW-2F 24 Apr 17:09:56 17:11:57 14° 65° (ENE) 17:13:58 145.980 - 146.000
STARS 24 Apr 17:10:38 17:13:39 18° 93° (E) 17:16:39 437.465
SO-50 24 Apr 17:11:02 17:14:34 23° 247° (WSW) 17:18:05 436.795
DOVE 4 24 Apr 17:13:28 17:18:15 36° 69° (ENE) 17:23:01 437.250
CUTE-I 24 Apr 17:18:57 17:23:20 26° 64° (ENE) 17:27:43 437.470
BEESAT 24 Apr 17:22:34 17:25:34 17° 298° (WNW) 17:28:33 436.000
NUDT-PHONESAT 24 Apr 17:28:26 17:31:01 19° 67° (ENE) 17:33:38 437.300
RS-15 24 Apr 17:30:02 17:42:15 76° 242° (WSW) 17:53:52 29.354- 29.394
MOZHAYETS 4 24 Apr 17:37:47 17:41:11 21° 295° (WNW) 17:44:34
XW-2D 24 Apr 17:56:00 17:59:39 52° 74° (ENE) 18:03:18 145.860 - 145.880
HO-68 24 Apr 17:58:04 18:03:27 24° 56° (ENE) 18:08:51 435.675
XW-2B 24 Apr 18:02:49 18:06:30 62° 75° (ENE) 18:10:13 145.730 - 145.750
KKS-1 24 Apr 18:07:16 18:11:33 48° 289° (WNW) 18:15:48 437.445
LilacSat-2 24 Apr 18:10:50 18:14:35 84° 74° (ENE) 18:18:22 437.200
XW-2C 24 Apr 18:14:34 18:18:17 89° 84° (E) 18:22:03 145.795 - 145.815
KAITUO 1B 24 Apr 18:18:21 18:22:02 78° 76° (ENE) 18:25:44 145.475/437.950
XW-2A 24 Apr 18:19:04 18:19:43 10° 64° (ENE) 18:20:22 145.665 - 145.685
CUBESAT XI-V 24 Apr 18:21:20 18:25:42 38° 290° (WNW) 18:30:03 437.345
SEEDS 24 Apr 18:29:47 18:31:21 12° 62° (ENE) 18:32:55 437.485
XW-2F 24 Apr 18:42:12 18:45:44 41° 261° (W) 18:49:18 145.980 - 146.000
CUBEBUG 2 24 Apr 18:44:40 18:46:40 13° 63° (ENE) 18:48:38 437.445
STARS 24 Apr 18:46:03 18:50:11 42° 289° (WNW) 18:54:17 437.465
YUBILEINY 24 Apr 18:49:20 18:50:34 10° 289° (WNW) 18:51:48 435.215
DOVE 4 24 Apr 18:51:14 18:55:54 31° 265° (W) 19:00:32 437.250
CUTE-I 24 Apr 18:58:03 19:03:08 43° 262° (W) 19:08:14 437.470
NUDT-PHONESAT 24 Apr 19:01:31 19:04:45 29° 264° (W) 19:08:00 437.300
XW-2D 24 Apr 19:33:19 19:34:09 11° 270° (W) 19:35:00 145.860 - 145.880
NO-84 24 Apr 19:34:16 19:36:31 15° 128° (SE) 19:38:40 435.350 FM
STRAND 1 24 Apr 19:35:13 19:39:34 28° 95° (E) 19:43:54 437.568
ZACube-1 24 Apr 19:36:57 19:39:31 16° 65° (ENE) 19:42:03 437.345
CUTE 1.7 + AOD 2 24 Apr 19:37:39 19:41:51 83° 260° (W) 19:46:06 437.475
AAUSAT CUBESAT 2 24 Apr 19:42:25 19:46:09 34° 70° (ENE) 19:49:55 437.432
HO-68 24 Apr 19:43:20 19:50:28 75° 255° (WSW) 19:57:40 435.675
AO-73 24 Apr 19:45:01 19:47:47 17° 65° (ENE) 19:50:32 145.935
RS-15 24 Apr 19:45:18 19:52:26 18° 264° (W) 19:59:27 29.354- 29.394
XW-2A 24 Apr 19:48:49 19:52:04 46° 261° (W) 19:55:19 145.665 - 145.685
SEEDS 24 Apr 20:02:19 20:06:27 68° 258° (WSW) 20:10:40 437.485
Oscar 11 24 Apr 20:02:47 20:06:11 23° 67° (ENE) 20:09:36 .
O/OREOS (USA 219) 24 Apr 20:05:26 20:09:34 31° 59° (ENE) 20:13:38 437.305
UWE-3 24 Apr 20:10:21 20:14:35 62° 74° (ENE) 20:18:45 435.000/436.395/437.385
CUBEBUG 2 24 Apr 20:18:25 20:22:48 64° 259° (W) 20:27:04 437.445
M-CUBED/EXP-1 PRIME 24 Apr 20:37:44 20:42:03 89° 269° (W) 20:46:00 437.505
DELFI C3 24 Apr 20:48:31 20:51:28 20° 67° (ENE) 20:54:25 145.870
NO-84 24 Apr 21:10:16 21:13:48 61° 322° (NW) 21:17:03 435.350 FM
AO-85 24 Apr 21:10:21 21:13:35 23° 46° (NE) 21:16:52 145.980
ZACube-1 24 Apr 21:11:22 21:15:26 47° 261° (W) 21:19:28 437.345
STRAND 1 24 Apr 21:14:08 21:18:47 37° 292° (WNW) 21:23:26 437.568
AAUSAT CUBESAT 2 24 Apr 21:18:36 21:21:41 20° 267° (W) 21:24:49 437.432
AO-73 24 Apr 21:19:44 21:23:43 42° 261° (W) 21:27:41 145.935
HO-68 24 Apr 21:36:36 21:39:20 12° 274° (W) 21:42:04 435.675
PRISM 24 Apr 21:36:53 21:39:12 14° 92° (E) 21:41:31 437.425
Oscar 11 24 Apr 21:38:17 21:42:09 32° 264° (W) 21:46:03 .
O/OREOS (USA 219) 24 Apr 21:44:59 21:48:51 27° 257° (WSW) 21:52:41 437.305
UWE-3 24 Apr 21:49:57 21:51:25 12° 270° (W) 21:52:53 435.000/436.395/437.385
OBJECT BX 24 Apr 22:02:46 22:06:23 71° 260° (W) 22:10:02 145.990 - 145.960
M-CUBED/EXP-1 PRIME 24 Apr 22:14:58 22:15:39 10° 308° (NW) 22:16:20 437.505
FO-29 24 Apr 22:19:39 22:23:42 22° 94° (E) 22:27:53 435.910
DELFI C3 24 Apr 22:22:26 22:26:01 32° 263° (W) 22:29:40 145.870
ESTCUBE 1 24 Apr 22:40:49 22:44:34 27° 67° (ENE) 22:48:20 437.505/2401.250
TIGRISAT 24 Apr 22:41:48 22:45:53 44° 99° (E) 22:50:00 435.000
NO-84 24 Apr 22:50:01 22:51:50 14° 340° (NNW) 22:53:35 435.350 FM
AO-85 24 Apr 22:50:21 22:54:02 36° 243° (WSW) 22:57:51 145.980
BEESAT 2 24 Apr 22:58:50 23:02:06 23° 45° (NE) 23:05:21 435.950
UNISAT 6 24 Apr 23:02:13 23:06:30 82° 103° (ESE) 23:10:50 437.425
BEESAT 3 24 Apr 23:04:41 23:08:40 57° 53° (NE) 23:12:36 437.485
VELOX 1 24 Apr 23:05:14 23:07:42 15° 62° (ENE) 23:10:12 145.980
PRISM 24 Apr 23:10:44 23:14:46 48° 288° (WNW) 23:18:44 437.425
LO-87 24 Apr 23:13:59 23:17:37 72° 258° (WSW) 23:21:15 145.935 - 145.965
AIST 2D 24 Apr 23:34:09 23:36:57 22° 95° (E) 23:39:44 435.315
POLYITAN 1 24 Apr 23:42:16 23:44:51 16° 92° (E) 23:47:26 437.675
QB50P2 24 Apr 23:48:19 23:51:27 20° 94° (E) 23:54:34 145.880/145.840
50 SAT 25 Apr 00:03:02 00:06:00 27° 70° (ENE) 00:09:00 437.505
DX 1 25 Apr 00:03:09 00:06:35 23° 66° (ENE) 00:10:01 434.975-435.025
FO-29 25 Apr 00:04:08 00:09:02 44° 290° (WNW) 00:14:08 435.910
NANOSAT C BR1 25 Apr 00:12:02 00:15:45 30° 96° (E) 00:19:27 145.865
ESTCUBE 1 25 Apr 00:17:16 00:21:14 31° 264° (W) 00:25:16 437.505/2401.250
TIGRISAT 25 Apr 00:19:25 00:22:15 18° 295° (WNW) 00:25:06 435.000
SPROUT 25 Apr 00:22:15 00:26:32 82° 76° (ENE) 00:30:50 437.525
BEESAT 2 25 Apr 00:36:11 00:40:00 40° 243° (WSW) 00:43:47 435.950
EO-79 25 Apr 00:38:06 00:42:17 67° 102° (ESE) 00:46:27 145.935-145.965
VELOX 1 25 Apr 00:39:16 00:43:39 60° 259° (WSW) 00:48:06 145.980
UNISAT 6 25 Apr 00:41:57 00:42:35 10° 300° (WNW) 00:43:12 437.425
DUCHIFAT 1 25 Apr 00:42:44 00:46:53 61° 102° (ESE) 00:51:00 145.980
BEESAT 3 25 Apr 00:43:45 00:45:46 14° 251° (WSW) 00:47:48 437.485
AIST 2D 25 Apr 01:07:18 01:10:05 22° 290° (WNW) 01:12:52 435.315
UKube-1 25 Apr 01:09:31 01:13:50 79° 74° (ENE) 01:18:12 .
POLYITAN 1 25 Apr 01:16:52 01:20:52 44° 288° (WNW) 01:24:51 437.675
QB50P2 25 Apr 01:23:29 01:27:20 35° 290° (WNW) 01:31:09 145.880/145.840
Gurwin Techsat 1B 25 Apr 01:26:46 01:28:53 12° 88° (E) 01:31:00 435.225
50 SAT 25 Apr 01:36:32 01:38:58 18° 266° (W) 01:41:24 437.505
DX 1 25 Apr 01:38:32 01:42:33 35° 262° (W) 01:46:37 434.975-435.025
Oscar 19 25 Apr 01:40:17 01:44:46 29° 95° (E) 01:49:14 437.125/150
NANOSAT C BR1 25 Apr 01:47:59 01:51:19 23° 293° (WNW) 01:54:38 145.865
BUGSAT 1 25 Apr 01:53:18 01:57:18 66° 285° (WNW) 02:01:15 437.445
ITUPSAT 1 25 Apr 01:53:27 01:56:57 21° 64° (ENE) 02:00:28 437.325
PCSat 25 Apr 02:06:36 02:10:52 24° 107° (ESE) 02:15:09 145.827
NO-84 25 Apr 02:07:01 02:09:07 17° 24° (NNE) 02:11:09 435.350 FM
EO-79 25 Apr 02:15:51 02:17:29 12° 298° (WNW) 02:19:08 145.935-145.965
DUCHIFAT 1 25 Apr 02:20:09 02:22:02 13° 298° (WNW) 02:23:55 145.980
BEESAT 25 Apr 02:50:24 02:55:08 75° 75° (ENE) 02:59:54 436.000
MOZHAYETS 4 25 Apr 03:02:19 03:06:38 44° 71° (ENE) 03:10:58
ITAMSAT 1 25 Apr 03:02:48 03:05:37 15° 90° (E) 03:08:26 435.822/435.867
Gurwin Techsat 1B 25 Apr 03:04:09 03:09:29 84° 285° (WNW) 03:14:48 435.225
Oscar 19 25 Apr 03:19:22 03:24:07 37° 292° (WNW) 03:28:51 437.125/150
ITUPSAT 1 25 Apr 03:29:55 03:34:28 46° 261° (W) 03:39:03 437.325
KKS-1 25 Apr 03:30:46 03:33:46 18° 63° (ENE) 03:36:48 437.445
NO-84 25 Apr 03:44:02 03:46:51 55° 223° (SW) 03:49:37 435.350 FM
CUBESAT XI-V 25 Apr 03:48:30 03:52:14 25° 66° (ENE) 03:56:02 437.345
PCSat 25 Apr 03:48:40 03:53:55 51° 305° (NW) 03:59:14 145.827
YUBILEINY 25 Apr 03:53:21 04:00:49 34° 84° (E) 04:08:17 435.215
STARS 25 Apr 04:08:01 04:11:08 19° 64° (ENE) 04:14:15 437.465
AO-7 25 Apr 04:08:32 04:16:36 51° 102° (ESE) 04:24:37 .
BEESAT 25 Apr 04:31:41 04:33:26 12° 271° (W) 04:35:11 436.000
ITAMSAT 1 25 Apr 04:40:26 04:45:35 70° 287° (WNW) 04:50:43 435.822/435.867
MOZHAYETS 4 25 Apr 04:40:50 04:44:00 18° 268° (W) 04:47:11
Gurwin Techsat 1B 25 Apr 04:46:28 04:48:36 12° 303° (WNW) 04:50:43 435.225
KKS-1 25 Apr 05:05:38 05:09:58 48° 260° (W) 05:14:19 437.445
CUBESAT XI-V 25 Apr 05:25:11 05:29:25 35° 263° (W) 05:33:44 437.345
PCSat 25 Apr 05:36:52 05:38:39 11° 327° (NNW) 05:40:28 145.827
STARS 25 Apr 05:42:57 05:47:10 43° 261° (W) 05:51:23 437.465
RS-15 25 Apr 05:47:42 05:54:01 16° 94° (E) 06:00:23 29.354- 29.394
SO-50 25 Apr 05:48:32 05:49:29 11° 107° (ESE) 05:50:25 436.795
YUBILEINY 25 Apr 05:48:44 05:57:11 55° 284° (WNW) 06:05:43 435.215
M-CUBED/EXP-1 PRIME 25 Apr 05:50:55 05:53:46 16° 57° (ENE) 05:56:39 437.505
AO-7 25 Apr 06:01:38 06:09:09 40° 301° (WNW) 06:16:41 .
XW-2F 25 Apr 06:14:06 06:16:43 18° 93° (E) 06:19:20 145.980 - 146.000
NUDT-PHONESAT 25 Apr 06:31:05 06:34:03 22° 95° (E) 06:37:02 437.300
DOVE 4 25 Apr 06:49:09 06:53:52 77° 103° (ESE) 06:58:16 437.250
STRAND 1 25 Apr 06:51:37 06:56:26 43° 69° (ENE) 07:01:14 437.568
XW-2D 25 Apr 07:01:34 07:05:23 73° 101° (ESE) 07:09:12 145.860 - 145.880
XW-2B 25 Apr 07:08:27 07:12:16 85° 98° (E) 07:16:05 145.730 - 145.750
HO-68 25 Apr 07:11:21 07:16:30 21° 91° (E) 07:21:37 435.675
CUTE-I 25 Apr 07:13:53 07:19:12 71° 103° (ESE) 07:24:30 437.470
LilacSat-2 25 Apr 07:17:16 07:21:06 70° 284° (WNW) 07:24:55 437.200
XW-2C 25 Apr 07:20:19 07:24:06 67° 285° (WNW) 07:27:53 145.795 - 145.815
KAITUO 1B 25 Apr 07:22:32 07:26:18 80° 284° (WNW) 07:30:05 145.475/437.950
CUTE 1.7 + AOD 2 25 Apr 07:22:46 07:25:28 16° 91° (E) 07:28:11 437.475
M-CUBED/EXP-1 PRIME 25 Apr 07:23:05 07:27:38 67° 254° (WSW) 07:32:19 437.505
SO-50 25 Apr 07:24:36 07:29:14 88° 300° (WNW) 07:33:51 436.795
SEEDS 25 Apr 07:46:02 07:49:05 19° 93° (E) 07:52:07 437.485
XW-2F 25 Apr 07:47:32 07:50:57 32° 289° (WNW) 07:54:21 145.980 - 146.000
RS-15 25 Apr 07:52:08 08:04:01 70° 116° (ESE) 08:16:16 29.354- 29.394
YUBILEINY 25 Apr 07:54:42 07:56:22 11° 308° (NW) 07:58:04 435.215
Tancredo 1 25 Apr 07:57:50 07:57:55 10° 130° (SE) 07:58:01 437.200
UWE-3 25 Apr 08:01:11 08:02:25 11° 90° (E) 08:03:39 435.000/436.395/437.385
NUDT-PHONESAT 25 Apr 08:04:52 08:07:55 24° 290° (WNW) 08:10:58 437.300
CUBEBUG 2 25 Apr 08:08:45 08:12:04 23° 94° (E) 08:15:24 437.445
PRISM 25 Apr 08:27:36 08:29:26 13° 62° (ENE) 08:31:17 437.425
DOVE 4 25 Apr 08:28:57 08:30:48 12° 301° (WNW) 08:32:37 437.250
STRAND 1 25 Apr 08:31:43 08:35:46 23° 266° (W) 08:39:50 437.568
FO-29 25 Apr 08:35:26 08:38:01 13° 58° (ENE) 08:40:31 435.910
XW-2A 25 Apr 08:42:24 08:45:40 49° 286° (WNW) 08:48:54 145.665 - 145.685
CUTE-I 25 Apr 08:55:21 08:58:39 17° 300° (WNW) 09:01:56 437.470
CUTE 1.7 + AOD 2 25 Apr 08:57:26 09:01:32 45° 288° (WNW) 09:05:38 437.475
HO-68 25 Apr 08:57:42 09:04:54 76° 289° (WNW) 09:12:04 435.675
AAUSAT CUBESAT 2 25 Apr 08:58:30 09:02:39 57° 100° (E) 09:06:45 437.432
ZACube-1 25 Apr 08:58:40 09:02:19 28° 96° (E) 09:06:01 437.345
AO-73 25 Apr 09:06:31 09:10:17 31° 96° (E) 09:14:06 145.935
SO-50 25 Apr 09:07:36 09:10:22 15° 323° (NW) 09:13:06 436.795
SEEDS 25 Apr 09:20:56 09:24:53 38° 289° (WNW) 09:28:50 437.485
Oscar 11 25 Apr 09:24:08 09:28:15 41° 98° (E) 09:32:22 .
Tancredo 1 25 Apr 09:30:15 09:33:21 89° 163° (SSE) 09:36:28 437.200
UWE-3 25 Apr 09:35:08 09:39:16 63° 285° (WNW) 09:43:27 435.000/436.395/437.385
ISS 25 Apr 09:38:37 09:41:52 83° 145° (SE) 09:45:08 437.550
TIGRISAT 25 Apr 09:40:58 09:45:07 42° 72° (ENE) 09:49:12 435.000
CUBEBUG 2 25 Apr 09:45:05 09:48:43 30° 290° (WNW) 09:52:22 437.445
DELFI C3 25 Apr 09:58:32 10:02:01 28° 96° (E) 10:05:27 145.870
PRISM 25 Apr 10:00:05 10:04:11 63° 258° (WSW) 10:08:21 437.425
UNISAT 6 25 Apr 10:01:23 10:05:47 77° 75° (ENE) 10:10:08 437.425
RS-15 25 Apr 10:05:54 10:17:24 45° 322° (NW) 10:29:08 29.354- 29.394
FO-29 25 Apr 10:15:58 10:22:25 81° 75° (ENE) 10:28:08 435.910
O/OREOS (USA 219) 25 Apr 10:18:32 10:22:32 31° 104° (ESE) 10:26:34 437.305
